Weather reports worldwide

Advertisment
Cairnwell, United Kingdom (3072): temperature & dewpoint: 11.10.2018 05:00:00 - 17.10.2018 05:00:00 (BST)Cairnwell, United Kingdom (3072): wind speed & gusts: 11.10.2018 05:00:00 - 17.10.2018 05:00:00 (BST)Cairnwell, United Kingdom (3072): wind direction: 11.10.2018 05:00:00 - 17.10.2018 05:00:00 (BST)
Date & Time tt [°C] td [°C] ff [km/h] ff [kn] fx [km/h] fx [kn] dd
17.10.2018 05:00:00 4,1 3,6 52 28 74 40 W
17.10.2018 04:00:00 4,3 3,7 48 26 68 37 W
17.10.2018 03:00:00 4,3 4,2 44 24 78 42 W
17.10.2018 02:00:00 5,4 5,4 42 23 59 32 WSW
17.10.2018 01:00:00 5,1 5,1 39 21 67 36 SSW
17.10.2018 00:00:00 5,2 5,1 50 27 70 38 SW
16.10.2018 23:00:00 5,1 5,1 50 27 72 39 SW
16.10.2018 22:00:00 5,2 5,2 50 27 67 36 SW
16.10.2018 21:00:00 5,1 5,1 44 24 59 32 SW
16.10.2018 20:00:00 5,1 5,1 52 28 70 38 SW
16.10.2018 19:00:00 5,4 5,4 54 29 74 40 SW
16.10.2018 18:00:00 5,7 5,7 65 35 85 46 WSW
16.10.2018 17:00:00 6,1 6,0 57 31 83 45 SW
16.10.2018 16:00:00 5,9 5,9 70 38 89 48 SSW
16.10.2018 15:00:00 5,5 5,5 74 40 91 49 SSW
16.10.2018 14:00:00 5,1 5,1 78 42 91 49 SSW
16.10.2018 13:00:00 4,3 4,3 72 39 93 50 S
16.10.2018 12:00:00 3,9 3,9 67 36 87 47 S
16.10.2018 11:00:00 3,6 3,6 72 39 89 48 S
16.10.2018 10:00:00 3,6 3,6 67 36 89 48 S
16.10.2018 09:00:00 3,3 3,3 65 35 81 44 S
16.10.2018 08:00:00 2,3 2,3 59 32 76 41 S
16.10.2018 07:00:00 1,7 1,7 65 35 81 44 SSW
16.10.2018 06:00:00 1,9 1,9 55 30 68 37 S
16.10.2018 05:00:00 1,4 1,4 41 22 59 32 S
16.10.2018 04:00:00 1,0 1,0 29 16 50 27 S
16.10.2018 03:00:00 1,5 1,5 41 22 57 31 S
16.10.2018 02:00:00 1,5 1,5 41 22 55 30 S
16.10.2018 01:00:00 1,8 1,8 42 23 50 27 S
16.10.2018 00:00:00 1,8 1,8 37 20 46 25 S
15.10.2018 23:00:00 2,1 2,1 31 17 - - S
15.10.2018 22:00:00 2,6 2,6 29 16 - - S
15.10.2018 21:00:00 3,0 3,0 29 16 - - S
15.10.2018 20:00:00 3,1 3,1 21 11 - - S
15.10.2018 19:00:00 3,2 3,2 15 8 - - S
15.10.2018 18:00:00 3,5 3,3 13 7 - - SSW
15.10.2018 17:00:00 4,7 1,3 13 7 - - WSW
15.10.2018 16:00:00 5,0 -0,3 22 12 - - WSW
15.10.2018 15:00:00 4,8 -1,2 21 11 - - WSW
15.10.2018 14:00:00 4,9 0,4 18 10 - - SW
15.10.2018 13:00:00 4,8 -0,2 26 14 - - SW
15.10.2018 12:00:00 4,3 -1,2 18 10 - - WSW
15.10.2018 11:00:00 3,2 -0,2 26 14 - - W
15.10.2018 10:00:00 3,3 -0,5 24 13 - - W
15.10.2018 09:00:00 2,9 -0,1 24 13 - - WSW
15.10.2018 08:00:00 2,3 0,0 24 13 - - SW
15.10.2018 07:00:00 1,9 0,8 22 12 - - SW
15.10.2018 06:00:00 2,3 -0,6 15 8 - - SSW
15.10.2018 05:00:00 2,8 -1,0 18 10 - - W
15.10.2018 04:00:00 3,0 -1,5 21 11 - - W
15.10.2018 03:00:00 2,3 -1,0 16 9 - - WSW
15.10.2018 02:00:00 2,3 0,3 18 10 - - SW
15.10.2018 01:00:00 2,6 1,7 28 15 50 27 W
15.10.2018 00:00:00 2,2 2,2 22 12 - - WSW
14.10.2018 23:00:00 2,0 2,0 18 10 - - SW
14.10.2018 22:00:00 2,5 2,5 28 15 - - WSW
14.10.2018 21:00:00 2,3 2,3 9 5 - - S
14.10.2018 20:00:00 2,6 2,6 18 10 - - WSW
14.10.2018 19:00:00 2,7 2,7 16 9 - - WSW
14.10.2018 18:00:00 3,2 3,2 29 16 - - WSW
14.10.2018 17:00:00 4,2 4,2 9 5 - - WSW
14.10.2018 16:00:00 3,7 3,7 9 5 - - W
14.10.2018 15:00:00 3,6 3,6 15 8 - - SW
14.10.2018 14:00:00 3,0 3,0 13 7 - - W
14.10.2018 13:00:00 2,9 2,9 5 3 - - WNW
14.10.2018 12:00:00 2,5 2,5 5 3 - - W
14.10.2018 11:00:00 2,0 2,0 2 1 - - S
14.10.2018 10:00:00 1,8 1,8 18 10 - - NW
14.10.2018 09:00:00 1,2 1,2 34 18 - - NW
14.10.2018 08:00:00 0,8 0,8 37 20 - - NW
14.10.2018 07:00:00 1,2 1,2 21 11 54 29 N
14.10.2018 06:00:00 1,5 1,5 48 26 68 37 NW
14.10.2018 05:00:00 2,2 2,2 50 27 61 33 WNW
14.10.2018 04:00:00 2,7 2,7 46 25 55 30 WNW
14.10.2018 03:00:00 2,8 2,8 48 26 54 29 WNW
14.10.2018 02:00:00 3,3 3,2 34 18 - - NNW
14.10.2018 01:00:00 3,8 3,8 24 13 - - NW
14.10.2018 00:00:00 5,4 5,4 29 16 61 33 W
13.10.2018 23:00:00 7,5 7,4 54 29 102 55 SSW
13.10.2018 22:00:00 8,6 8,6 72 39 102 55 SSW
13.10.2018 21:00:00 9,6 9,6 80 43 96 52 S
13.10.2018 20:00:00 9,2 9,1 67 36 89 48 S
13.10.2018 19:00:00 9,1 9,1 70 38 98 53 SSE
13.10.2018 18:00:00 8,5 8,5 72 39 113 61 SE
13.10.2018 17:00:00 7,8 7,8 54 29 72 39 ESE
13.10.2018 16:00:00 6,7 6,7 37 20 59 32 E
13.10.2018 15:00:00 5,3 5,3 21 11 - - ENE
13.10.2018 14:00:00 5,0 4,9 22 12 - - NNE
13.10.2018 13:00:00 4,7 4,7 16 9 - - NNE
13.10.2018 12:00:00 4,6 4,6 11 6 - - NNE
13.10.2018 11:00:00 4,9 4,8 9 5 - - S
13.10.2018 10:00:00 4,7 4,7 16 9 - - S
13.10.2018 09:00:00 4,6 4,5 24 13 - - SSW
13.10.2018 08:00:00 4,3 4,3 24 13 - - SSW
13.10.2018 07:00:00 4,5 4,5 24 13 - - S
13.10.2018 06:00:00 4,7 4,7 34 18 50 27 SSW
13.10.2018 05:00:00 4,7 4,7 42 23 61 33 SSW
13.10.2018 04:00:00 4,9 4,9 42 23 57 31 SSW
13.10.2018 03:00:00 5,2 5,2 48 26 70 38 SSW
13.10.2018 02:00:00 5,2 5,2 54 29 76 41 SW
13.10.2018 01:00:00 5,5 5,5 68 37 94 51 SW
13.10.2018 00:00:00 5,7 5,6 76 41 93 50 SW
12.10.2018 23:00:00 5,6 5,6 63 34 104 56 SSW
12.10.2018 22:00:00 5,6 5,6 80 43 122 66 SSW
12.10.2018 21:00:00 5,5 5,5 76 41 107 58 SW
12.10.2018 20:00:00 6,5 6,5 76 41 106 57 SSW
12.10.2018 19:00:00 6,8 6,8 81 44 98 53 S
12.10.2018 18:00:00 6,4 6,4 67 36 80 43 S
12.10.2018 17:00:00 6,1 6,1 63 34 85 46 S
12.10.2018 16:00:00 6,3 6,3 68 37 87 47 S
12.10.2018 15:00:00 6,2 6,2 74 40 111 60 S
12.10.2018 14:00:00 7,8 7,8 78 42 100 54 S
12.10.2018 13:00:00 7,5 7,5 83 45 119 64 S
12.10.2018 12:00:00 7,5 7,4 94 51 126 68 S
12.10.2018 11:00:00 7,1 7,1 100 54 148 80 SSW
12.10.2018 10:00:00 6,9 6,9 124 67 159 86 SSE
12.10.2018 09:00:00 5,3 5,3 113 61 152 82 SSE
12.10.2018 08:00:00 4,5 4,5 102 55 137 74 SE
12.10.2018 07:00:00 3,8 3,8 94 51 133 72 SSE
12.10.2018 06:00:00 3,5 3,5 87 47 109 59 SE
12.10.2018 05:00:00 3,5 3,5 55 30 68 37 SSE
12.10.2018 04:00:00 3,6 3,6 37 20 48 26 SSE
12.10.2018 03:00:00 3,7 3,7 35 19 46 25 S
12.10.2018 02:00:00 3,9 3,9 26 14 - - SSW
12.10.2018 01:00:00 4,2 4,1 22 12 94 51 SW
12.10.2018 00:00:00 4,8 4,8 16 9 48 26 SSW
11.10.2018 23:00:00 5,4 5,4 41 22 52 28 SSW
11.10.2018 22:00:00 5,9 5,8 42 23 50 27 S
11.10.2018 21:00:00 6,2 6,2 42 23 83 45 S
11.10.2018 20:00:00 7,8 7,8 67 36 100 54 S
11.10.2018 19:00:00 8,4 8,4 72 39 102 55 SSE
11.10.2018 18:00:00 8,6 8,6 72 39 96 52 SSE
11.10.2018 17:00:00 8,9 8,9 78 42 96 52 S
11.10.2018 16:00:00 8,9 8,9 72 39 93 50 SSE
11.10.2018 15:00:00 8,7 8,7 63 34 81 44 SSE
11.10.2018 14:00:00 8,6 8,5 63 34 85 46 SSE
11.10.2018 13:00:00 8,7 8,7 61 33 83 45 SSE
11.10.2018 12:00:00 8,6 8,6 70 38 89 48 SSE
11.10.2018 11:00:00 8,5 8,5 67 36 98 53 SSE
11.10.2018 10:00:00 8,8 8,8 76 41 122 66 SE
11.10.2018 09:00:00 9,1 9,0 80 43 106 57 SE
11.10.2018 08:00:00 8,8 8,7 67 36 89 48 ESE
11.10.2018 07:00:00 8,5 8,5 54 29 80 43 SE
11.10.2018 06:00:00 8,2 8,2 52 28 87 47 SE
11.10.2018 05:00:00 8,2 8,2 55 30 91 49 SE

tt = temperature
td = dewpoint
ff = wind speed
fx = gusts
dd = wind direction

Next stations